Simultaneous Nadir Overpasses (SNOs) Predictions

Prediction of SNOs between GOES-15 and TERRA Satellite Orbit:

Table of predicted SNOs for the next 14.0 days since TLE Epoch: 7/2/2016
Index Date Time (GOES-15) GOES-15 Lat,Lon TERRA Lat,Lon Distance(km) Time Diff (sec)
1 07/03/2016 19:25:58 -0.06,-135.53 -0.31,-134.25 145.19 80
2 07/04/2016 07:50:02 0.03,-135.53 -0.81,-139.43 444.58 80
3 07/05/2016 19:13:47 -0.07,-135.52 -0.96,-131.29 480.34 80
4 07/06/2016 07:37:51 0.04,-135.52 -0.16,-136.48 109.48 80
5 07/08/2016 07:23:00 0.05,-135.51 0.48,-133.53 225.36 80
6 07/08/2016 19:46:55 -0.03,-135.50 0.64,-138.68 360.99 80
7 07/10/2016 19:34:44 -0.03,-135.49 -0.01,-135.73 26.60 80
8 07/12/2016 19:19:52 -0.04,-135.47 -0.60,-132.76 307.58 80
9 07/13/2016 07:43:56
